Regional Weather Roundup
Issued by NWS

Home | Current Version | Previous Version | Graphics & Text | Print | Product List | Glossary On
Versions: 1 2 3 4 5 6 7 8 9 10 11 12 13 14 15 16 17 18 19 20 21 22 23 24 25 26 27 28 29 30 31 32 33 34 35 36 37 38 39 40 41 42 43 44 45 46 47 48 49 50
000
ASUS45 KPSR 230600
RWRAZ

PRELIMINARY ARIZONA REGIONAL HOURLY WEATHER ROUNDUP
NATIONAL WEATHER SERVICE PHOENIX AZ
1100 PM MST FRI AUG 22 2014

NOTE: FAIR INDICATES FEW OR NO CLOUDS BELOW 12,000 FEET WITH NO
SIGNIFICANT WEATHER AND/OR OBSTRUCTIONS TO VISIBILITY.

AZZ001>003-036-230700-
NORTHWEST ARIZONA

CITY           SKY/WX    TMP DP  RH WIND       PRES   REMARKS
KINGMAN        CLEAR     68  57  68 S6        30.00S
6HR MIN TEMP:  66; 6HR MAX TEMP:  83;

$$

AZZ004>008-015-016-018-230700-
NORTH CENTRAL ARIZONA

CITY           SKY/WX    TMP DP  RH WIND       PRES   REMARKS
GRAND CANYON     N/A    N/A N/A N/A MISG        N/A
WILLIAMS       CLEAR     55  48  76 S7        30.27F
PRESCOTT       CLEAR     60  52  74 S3        30.13S
6HR MIN TEMP:  60; 6HR MAX TEMP:  75;

FLAGSTAFF      PTCLDY    54  49  83 W6        30.24S
6HR MIN TEMP:  53; 6HR MAX TEMP:  65;

PAYSON         CLEAR     63  52  67 CALM      30.17R
PAGE           MOCLDY    77  46  33 S7        29.98R
6HR MIN TEMP:  77; 6HR MAX TEMP:  83;

$$

AZZ009>014-017-230700-
NORTHEAST ARIZONA

CITY           SKY/WX    TMP DP  RH WIND       PRES   REMARKS
WINSLOW        NOT AVBL
SAINT JOHNS    CLEAR     59  50  72 CALM      30.17R
6HR MIN TEMP:  59; 6HR MAX TEMP:  74;

WINDOW ROCK    MOCLDY    60  48  64 SW6       30.21S
6HR MIN TEMP:  60; 6HR MAX TEMP:  71;

$$

AZZ023-230700-
GREATER PHOENIX AREA

CITY           SKY/WX    TMP DP  RH WIND       PRES   REMARKS
PHOENIX        CLEAR     84  62  47 CALM      29.88R
6HR MIN TEMP:  84; 6HR MAX TEMP:  93;

DEER VALLEY    CLEAR     82  60  47 CALM      29.90R
6HR MIN TEMP:  81; 6HR MAX TEMP:  90;

SCOTTSDALE     CLEAR     80  61  52 CALM      29.92R
6HR MIN TEMP:  80; 6HR MAX TEMP:  90;

$$

AZZ027-028-230700-
SOUTHWEST MARICOPA COUNTY AND PINAL COUNTY

CITY           SKY/WX    TMP DP  RH WIND       PRES   REMARKS
CASA GRANDE    CLEAR     81  54  39 CALM      29.93R
6HR MIN TEMP:  81; 6HR MAX TEMP:  91;

$$

AZZ503-504-507>509-230700-
SOUTHEAST ARIZONA

CITY           SKY/WX    TMP DP  RH WIND       PRES   REMARKS
TUCSON         CLEAR     81  60  48 NW5       30.02R
6HR MIN TEMP:  81; 6HR MAX TEMP:  89;

NOGALES        PTCLDY    68  61  78 E6        30.10S
6HR MIN TEMP:  68; 6HR MAX TEMP:  82;

SIERRA VISTA   PTCLDY    66  61  82 SE3       30.15S
SAFFORD        MOCLDY    75  56  51 NW7       30.01R
6HR MIN TEMP:  75; 6HR MAX TEMP:  86;

$$

AZZ020-021-025-026-031-230700-
SOUTHWEST ARIZONA

CITY           SKY/WX    TMP DP  RH WIND       PRES   REMARKS
YUMA           NOT AVBL
$$

CAZ031-033-041-043-047-048-061-230700-
SOUTHERN CALIFORNIA

CITY           SKY/WX    TMP DP  RH WIND       PRES   REMARKS
DOWNTOWN L.A.  CLOUDY    69  62  78 W3        29.95S
6HR MIN TEMP:  69; 6HR MAX TEMP:  79;

L.A. AIRPORT   MOCLDY    69  63  81 NW7       29.96S
6HR MIN TEMP:  68; 6HR MAX TEMP:  74;

SAN DIEGO      PTCLDY    70  63  78 N3        29.97S
6HR MIN TEMP:  70; 6HR MAX TEMP:  77;

BURBANK        CLEAR     67  62  84 S3        29.96S
6HR MIN TEMP:  67; 6HR MAX TEMP:  85;

ONTARIO        CLEAR     70  62  76 SW5       29.96S
6HR MIN TEMP:  70; 6HR MAX TEMP:  89;

RIVERSIDE      CLEAR     69  62  78 W5        29.97R
6HR MIN TEMP:  69; 6HR MAX TEMP:  88;

PALM SPRINGS   CLEAR     88  34  14 NW10      29.85S
6HR MIN TEMP:  88; 6HR MAX TEMP:  97;

EL CENTRO NAS  CLEAR     83  48  29 W13       29.82S
6HR MIN TEMP:  83; 6HR MAX TEMP:  95;

IMPERIAL       CLEAR     78  51  38 W8        29.81S
6HR MIN TEMP:  78; 6HR MAX TEMP:  95;

BLYTHE         CLEAR     87  62  43 S10       29.83R
6HR MIN TEMP:  86; 6HR MAX TEMP:  92;

$$

NVZ020-UTZ003-230700-
SOUTHERN NEVADA-UTAH

CITY           SKY/WX    TMP DP  RH WIND       PRES   REMARKS
LAS VEGAS      NOT AVBL
SALT LAKE CITY CLOUDY    59  56  89 SE3       30.01S
6HR MIN TEMP:  59; 6HR MAX TEMP:  62; 6HR PCP:  0.17;

$$

NMZ009-TXZ055-230700-
NEW MEXICO-WEST TEXAS

CITY           SKY/WX    TMP DP  RH WIND       PRES   REMARKS
ALBUQUERQUE    PTCLDY    58  55  90 SE7       30.18R
6HR MIN TEMP:  58; 6HR MAX TEMP:  70; 6HR PCP:  0.04;

EL PASO        MOCLDY    72  63  73 S6        30.07S
6HR MIN TEMP:  72; 6HR MAX TEMP:  77; 6HR PCP: TRACE;

$$


........................KEY........................
SKY/WX - SKY CONDITION/WEATHER
TMP    - TEMPERATURE IN FAHRENHEIT
DP     - DEW POINT IN FAHRENHEIT
RH     - RELATIVE HUMIDITY IN PERCENT
WIND   - DIRECTION AND SPEED IN MILES PER HOUR (MPH)
VRB    - VARIABLE WIND DIRECTION
PRES   - MEAN SEA LEVEL PRESSURE IN INCHES OF MERCURY
         F - FALLING PRESSURE   R - RISING PRESSURE
         S - STEADY PRESSURE
VSB    - VISIBILITY IN MILES
HX     - HEAT INDEX IN FAHRENHEIT
WCI    - WIND CHILL INDEX IN FAHRENHEIT
TC     - TEMPERATURE IN CELSIUS WHICH IS ALSO KNOWN AS
         TEMPERATURE IN CENTIGRADE
AFB    - AIR FORCE BASE
         LUKE AFB IS LUKE AIR FORCE BASE
         DAVIS-MONTHAN IS DAVIS-MONTHAN AIR FORCE BASE
NAS    - NAVAL AIR STATION
         EL CENTRO NAS IS EL CENTRO NAVAL AIR STATION
N/A    - NOT AVAILABLE



USA.gov is the U.S. government's official web portal to all federal, state and local government web resources and services.